^^
Refsnesbakken Borettslag Station Historical Data
 
Daily Summary for May 05, 2026 Units:  Metric    English   Both
Daily Weekly Monthly Yearly
  Current: High: Low: Average:
Temperature: 9.5 °C 12.2 °C 3.8 °C 7 °C
Dew Point: 2.6 °C 2.8 °C -4.9 °C -2.5 °C
Humidity: 62.1% 63.3% 32.3% 52%
Wind Speed: 27.8km/h 29.6km/h 11.1km/h 17.6km/h
Wind Gust: 27.8km/h 29.6km/h - -
WindSSW - - WNW
Pressure: 1013.2 hPa 1013.8 hPa 1009.6 hPa -
Precipitation: 0.0 mm      
 
 
Tabular Data for May 05, 2026
Time Temperature Dew Point Pressure Wind Wind Speed Wind Gust Humidity Rainfall Rate (Hourly) solar
00:09 7.5 °C -0.2 °C 1009.7 hPa NW 20.4 km/h 20.9 km/h 58% 0.0 mm 0 W/m2
00:14 7.4 °C -0.1 °C 1009.6 hPa NW 20.4 km/h 20.9 km/h 58.7% 0.0 mm 0 W/m2
00:19 7.3 °C -0.7 °C 1009.8 hPa NW 20.4 km/h 20.9 km/h 56.8% 0.0 mm 0 W/m2
00:24 7.3 °C -1 °C 1009.9 hPa NW 20.4 km/h 20.9 km/h 55.8% 0.0 mm 0 W/m2
00:29 7.2 °C -1.4 °C 1010.0 hPa NW 20.4 km/h 20.9 km/h 54.7% 0.0 mm 0 W/m2
00:34 7.1 °C -0.8 °C 1010.0 hPa NW 21.8 km/h 22.2 km/h 57.1% 0.0 mm 0 W/m2
00:39 7.1 °C -0.9 °C 1009.9 hPa NW 22.2 km/h 22.5 km/h 56.7% 0.0 mm 0 W/m2
00:44 7 °C -1.4 °C 1010.0 hPa NW 22.2 km/h 22.5 km/h 55.3% 0.0 mm 0 W/m2
00:49 6.9 °C -1.2 °C 1010.1 hPa NW 22.2 km/h 22.5 km/h 56% 0.0 mm 0 W/m2
00:54 6.9 °C -1 °C 1010.0 hPa NW 22.2 km/h 22.5 km/h 57.2% 0.0 mm 0 W/m2
00:59 6.8 °C -1.2 °C 1010.1 hPa NW 22.2 km/h 22.5 km/h 56.7% 0.0 mm 0 W/m2
01:04 6.7 °C -1.1 °C 1010.2 hPa WNW 20 km/h 22.5 km/h 57.4% 0.0 mm 0 W/m2
01:09 6.6 °C -1.4 °C 1010.3 hPa WNW 16.7 km/h 22.5 km/h 56.6% 0.0 mm 0 W/m2
01:14 6.5 °C -1.6 °C 1010.4 hPa WNW 16.7 km/h 16.7 km/h 56.3% 0.0 mm 0 W/m2
01:19 6.4 °C -2.2 °C 1010.6 hPa WNW 16.7 km/h 16.7 km/h 54.2% 0.0 mm 0 W/m2
01:24 6.3 °C -1.9 °C 1010.6 hPa WNW 16.7 km/h 16.7 km/h 55.8% 0.0 mm 0 W/m2
01:29 6.2 °C -1.7 °C 1010.6 hPa WNW 16.7 km/h 16.7 km/h 56.8% 0.0 mm 0 W/m2
01:34 6.1 °C -1.6 °C 1010.8 hPa NW 18.1 km/h 18.5 km/h 57.7% 0.0 mm 0 W/m2
01:39 6.1 °C -1.7 °C 1010.8 hPa NW 18.5 km/h 19.3 km/h 57.3% 0.0 mm 0 W/m2
01:44 6.1 °C -1.6 °C 1010.8 hPa NW 18.5 km/h 19.3 km/h 57.9% 0.0 mm 0 W/m2
01:49 6 °C -1.7 °C 1010.8 hPa NW 18.5 km/h 19.3 km/h 57.6% 0.0 mm 0 W/m2
01:54 5.9 °C -1.8 °C 1010.9 hPa NW 18.5 km/h 19.3 km/h 58% 0.0 mm 0 W/m2
01:59 5.8 °C -1.6 °C 1010.8 hPa NW 18.5 km/h 19.3 km/h 58.9% 0.0 mm 0 W/m2
02:04 5.7 °C -1.7 °C 1010.8 hPa NW 20 km/h 20.4 km/h 59% 0.0 mm 0 W/m2
02:09 5.7 °C -1.8 °C 1010.8 hPa NW 20.4 km/h 20.9 km/h 58.5% 0.0 mm 0 W/m2
02:14 5.6 °C -1.9 °C 1010.9 hPa NW 20.4 km/h 20.9 km/h 58.5% 0.0 mm 0 W/m2
02:19 5.5 °C -2 °C 1011.0 hPa NW 20.4 km/h 20.9 km/h 58.2% 0.0 mm 0 W/m2
02:24 5.5 °C -2.3 °C 1011.0 hPa NW 20.4 km/h 20.9 km/h 57.4% 0.0 mm 0 W/m2
02:29 5.4 °C -2.5 °C 1011.0 hPa NW 20.4 km/h 20.9 km/h 56.7% 0.0 mm 0 W/m2
02:34 5.4 °C -2.6 °C 1011.0 hPa NW 18.2 km/h 20.9 km/h 56.5% 0.0 mm 0 W/m2
02:39 5.3 °C -2.9 °C 1011.0 hPa NW 14.8 km/h 20.9 km/h 55.5% 0.0 mm 0 W/m2
02:44 5.3 °C -2.8 °C 1011.0 hPa NW 14.8 km/h 14.8 km/h 56% 0.0 mm 0 W/m2
02:49 5.2 °C -3 °C 1011.0 hPa NW 14.8 km/h 14.8 km/h 55.5% 0.0 mm 0 W/m2
02:54 5.2 °C -3.3 °C 1011.1 hPa NW 14.8 km/h 14.8 km/h 54.7% 0.0 mm 0 W/m2
02:59 5.1 °C -3.2 °C 1011.1 hPa NW 14.8 km/h 14.8 km/h 55.1% 0.0 mm 0 W/m2
03:04 5.1 °C -3.3 °C 1011.2 hPa WNW 20.6 km/h 22.2 km/h 54.8% 0.0 mm 0 W/m2
03:09 5 °C -3.3 °C 1011.3 hPa WNW 22.2 km/h 22.5 km/h 54.7% 0.0 mm 0 W/m2
03:14 5 °C -3.5 °C 1011.3 hPa WNW 22.2 km/h 22.5 km/h 54.1% 0.0 mm 0 W/m2
03:19 5 °C -3.9 °C 1011.3 hPa WNW 22.2 km/h 22.5 km/h 52.8% 0.0 mm 0 W/m2
03:24 5 °C -3.4 °C 1011.5 hPa WNW 22.2 km/h 22.5 km/h 54.8% 0.0 mm 0 W/m2
03:29 5 °C -4 °C 1011.5 hPa WNW 22.2 km/h 22.5 km/h 52.5% 0.0 mm 0 W/m2
03:34 4.9 °C -3.9 °C 1011.5 hPa WNW 20 km/h 22.5 km/h 52.7% 0.0 mm 0 W/m2
03:39 4.8 °C -3.9 °C 1011.5 hPa WNW 16.7 km/h 22.5 km/h 53% 0.0 mm 0 W/m2
03:44 4.8 °C -3.7 °C 1011.6 hPa WNW 16.7 km/h 16.7 km/h 54.4% 0.0 mm 0 W/m2
03:49 4.7 °C -4 °C 1011.7 hPa WNW 16.7 km/h 16.7 km/h 53.5% 0.0 mm 0 W/m2
03:54 4.7 °C -3.8 °C 1011.8 hPa WNW 16.7 km/h 16.7 km/h 54.3% 0.0 mm 0 W/m2
03:59 4.6 °C -3.8 °C 1011.8 hPa WNW 16.7 km/h 16.7 km/h 54.2% 0.0 mm 0 W/m2
04:04 4.5 °C -4.2 °C 1011.8 hPa NNW 15.3 km/h 16.7 km/h 53.2% 0.0 mm 0 W/m2
04:09 4.5 °C -4.1 °C 1011.8 hPa NNW 13 km/h 16.1 km/h 53.8% 0.0 mm 0 W/m2
04:14 4.4 °C -4.2 °C 1012.0 hPa NNW 13 km/h 13 km/h 53.6% 0.0 mm 0 W/m2
04:19 4.4 °C -3.9 °C 1011.9 hPa NNW 13 km/h 13 km/h 54.9% 0.0 mm 0 W/m2
04:24 4.4 °C -3.6 °C 1011.9 hPa NNW 13 km/h 13 km/h 56.1% 0.0 mm 0 W/m2
04:29 4.4 °C -3.6 °C 1011.8 hPa NNW 13 km/h 13 km/h 56.1% 0.0 mm 0 W/m2
04:34 4.4 °C -3.7 °C 1011.9 hPa NNW 13 km/h 13 km/h 55.8% 0.0 mm 0 W/m2
04:39 4.4 °C -3.7 °C 1011.8 hPa NNW 13 km/h 13 km/h 55.8% 0.0 mm 0 W/m2
04:44 4.4 °C -3.5 °C 1011.9 hPa NNW 13 km/h 13 km/h 56.4% 0.0 mm 0 W/m2
04:49 4.4 °C -3.7 °C 1011.9 hPa NNW 13 km/h 13 km/h 55.8% 0.0 mm 0 W/m2
04:54 4.4 °C -3.6 °C 1011.9 hPa NNW 13 km/h 13 km/h 56.2% 0.0 mm 0 W/m2
04:59 4.3 °C -3.6 °C 1011.9 hPa NNW 13 km/h 13 km/h 56.1% 0.0 mm 0 W/m2
05:04 4.3 °C -3.4 °C 1012.0 hPa NW 14.4 km/h 14.8 km/h 57% 0.0 mm 0 W/m2
05:09 4.3 °C -3.7 °C 1012.0 hPa WNW 14.8 km/h 14.8 km/h 55.9% 0.0 mm 0 W/m2
05:14 4.2 °C -3.9 °C 1012.0 hPa WNW 14.8 km/h 14.8 km/h 55.6% 0.0 mm 5 W/m2
05:19 4.2 °C -3.7 °C 1012.1 hPa WNW 14.8 km/h 14.8 km/h 56.5% 0.0 mm 5 W/m2
05:24 4.2 °C -3.8 °C 1012.1 hPa WNW 14.8 km/h 14.8 km/h 56.2% 0.0 mm 7 W/m2
05:29 4.1 °C -3.7 °C 1012.1 hPa WNW 14.8 km/h 14.8 km/h 57.1% 0.0 mm 7 W/m2
05:34 4.1 °C -3.3 °C 1012.2 hPa WNW 16.2 km/h 16.7 km/h 58.7% 0.0 mm 9 W/m2
05:39 4 °C -3.3 °C 1012.2 hPa WNW 16.7 km/h 16.7 km/h 58.8% 0.0 mm 9 W/m2
05:44 4 °C -3.4 °C 1012.2 hPa WNW 16.7 km/h 16.7 km/h 58.7% 0.0 mm 11 W/m2
05:49 4 °C -3.4 °C 1012.3 hPa WNW 16.7 km/h 16.7 km/h 58.5% 0.0 mm 11 W/m2
05:54 4 °C -3.1 °C 1012.2 hPa WNW 16.7 km/h 16.7 km/h 59.8% 0.0 mm 12 W/m2
05:59 4 °C -2.9 °C 1012.2 hPa WNW 16.7 km/h 16.7 km/h 60.6% 0.0 mm 12 W/m2
06:04 4 °C -3 °C 1012.2 hPa WNW 15.2 km/h 16.7 km/h 60.4% 0.0 mm 14 W/m2
06:09 4 °C -2.7 °C 1012.3 hPa WNW 13 km/h 16.1 km/h 61.5% 0.0 mm 14 W/m2
06:14 4 °C -2.8 °C 1012.4 hPa WNW 13 km/h 13 km/h 61% 0.0 mm 14 W/m2
06:19 4 °C -3 °C 1012.4 hPa WNW 13 km/h 13 km/h 60.4% 0.0 mm 16 W/m2
06:24 4 °C -3 °C 1012.5 hPa WNW 13 km/h 13 km/h 60.3% 0.0 mm 16 W/m2
06:29 4 °C -3.1 °C 1012.5 hPa WNW 13 km/h 13 km/h 60.2% 0.0 mm 16 W/m2
06:34 3.9 °C -3.3 °C 1012.6 hPa WNW 13 km/h 13 km/h 59.3% 0.0 mm 18 W/m2
06:39 3.9 °C -3.2 °C 1012.6 hPa WNW 13 km/h 13 km/h 59.8% 0.0 mm 18 W/m2
06:44 3.9 °C -3.2 °C 1012.6 hPa WNW 13 km/h 13 km/h 59.8% 0.0 mm 18 W/m2
06:49 3.8 °C -3.4 °C 1012.7 hPa WNW 13 km/h 13 km/h 59% 0.0 mm 18 W/m2
06:54 3.8 °C -3.2 °C 1012.7 hPa WNW 13 km/h 13 km/h 60% 0.0 mm 18 W/m2
06:59 3.8 °C -3.2 °C 1012.8 hPa WNW 13 km/h 13 km/h 60.3% 0.0 mm 19 W/m2
07:04 3.8 °C -3.4 °C 1012.9 hPa WNW 13 km/h 13 km/h 59.7% 0.0 mm 19 W/m2
07:09 3.8 °C -3.4 °C 1012.8 hPa WNW 13 km/h 13 km/h 59.7% 0.0 mm 19 W/m2
07:14 3.8 °C -3.2 °C 1012.9 hPa WNW 13 km/h 13 km/h 60.2% 0.0 mm 19 W/m2
07:19 3.8 °C -3.4 °C 1012.8 hPa WNW 13 km/h 13 km/h 59.4% 0.0 mm 19 W/m2
07:24 3.8 °C -3.5 °C 1012.8 hPa WNW 13 km/h 13 km/h 58.9% 0.0 mm 21 W/m2
07:29 3.9 °C -3.5 °C 1012.9 hPa WNW 13 km/h 13 km/h 58.7% 0.0 mm 21 W/m2
07:34 3.9 °C -3.4 °C 1012.9 hPa WNW 13 km/h 13 km/h 58.8% 0.0 mm 21 W/m2
07:39 3.9 °C -3.5 °C 1013.0 hPa WNW 13 km/h 13 km/h 58.5% 0.0 mm 21 W/m2
07:44 3.9 °C -3.6 °C 1013.0 hPa WNW 13 km/h 13 km/h 58% 0.0 mm 23 W/m2
07:49 4 °C -3.5 °C 1013.0 hPa WNW 13 km/h 13 km/h 58.1% 0.0 mm 23 W/m2
07:54 4 °C -3.5 °C 1013.0 hPa WNW 13 km/h 13 km/h 58% 0.0 mm 28 W/m2
07:59 4.1 °C -3.4 °C 1012.9 hPa WNW 13 km/h 13 km/h 58.2% 0.0 mm 28 W/m2
08:04 4.1 °C -3.6 °C 1012.9 hPa WNW 17.3 km/h 18.5 km/h 57.3% 0.0 mm 23 W/m2
08:09 4.2 °C -3.5 °C 1012.9 hPa WNW 18.5 km/h 19.3 km/h 57.5% 0.0 mm 25 W/m2
08:14 4.3 °C -3.5 °C 1012.9 hPa WNW 18.5 km/h 19.3 km/h 57% 0.0 mm 25 W/m2
08:19 4.3 °C -3.5 °C 1013.0 hPa WNW 18.5 km/h 19.3 km/h 57.2% 0.0 mm 25 W/m2
08:24 4.3 °C -3.4 °C 1013.0 hPa WNW 18.5 km/h 19.3 km/h 57.3% 0.0 mm 26 W/m2
08:29 4.3 °C -3.2 °C 1013.0 hPa WNW 18.5 km/h 18.5 km/h 58% 0.0 mm 26 W/m2
08:34 4.5 °C -3.3 °C 1012.9 hPa NW 20 km/h 20.4 km/h 56.8% 0.0 mm 26 W/m2
08:39 4.7 °C -3 °C 1012.9 hPa NW 20.4 km/h 20.9 km/h 57.3% 0.0 mm 26 W/m2
08:44 4.8 °C -3.4 °C 1013.0 hPa NW 20.4 km/h 20.9 km/h 55.2% 0.0 mm 28 W/m2
08:49 4.9 °C -3.1 °C 1013.0 hPa NW 20.4 km/h 20.9 km/h 56.2% 0.0 mm 28 W/m2
08:54 5.1 °C -3.2 °C 1013.0 hPa NW 20.4 km/h 20.9 km/h 55.4% 0.0 mm 28 W/m2
08:59 5.2 °C -3 °C 1012.9 hPa NW 20.4 km/h 20.9 km/h 55.8% 0.0 mm 28 W/m2
09:04 5.2 °C -3.4 °C 1013.0 hPa WNW 18.9 km/h 20.9 km/h 54% 0.0 mm 30 W/m2
09:09 5.2 °C -4 °C 1013.0 hPa WNW 16.7 km/h 20.9 km/h 51.3% 0.0 mm 30 W/m2
09:14 5.3 °C -4 °C 1013.0 hPa WNW 16.7 km/h 16.7 km/h 51.4% 0.0 mm 30 W/m2
09:19 5.3 °C -3.9 °C 1013.1 hPa WNW 16.7 km/h 16.7 km/h 51.6% 0.0 mm 32 W/m2
09:24 5.4 °C -3.9 °C 1013.1 hPa WNW 16.7 km/h 16.7 km/h 51.2% 0.0 mm 32 W/m2
09:29 5.5 °C -4 °C 1013.2 hPa WNW 16.7 km/h 16.7 km/h 50.7% 0.0 mm 32 W/m2
09:34 5.6 °C -4 °C 1013.3 hPa NW 15.9 km/h 16.7 km/h 50.3% 0.0 mm 33 W/m2
09:39 5.7 °C -3.7 °C 1013.3 hPa NW 14.8 km/h 16.1 km/h 51% 0.0 mm 506 W/m2
09:44 6 °C -3.6 °C 1013.3 hPa NW 14.8 km/h 14.8 km/h 50.2% 0.0 mm 517 W/m2
09:49 6.2 °C -3.5 °C 1013.3 hPa NW 14.8 km/h 14.8 km/h 49.7% 0.0 mm 526 W/m2
09:54 6.4 °C -3.5 °C 1013.4 hPa NW 14.8 km/h 14.8 km/h 49.1% 0.0 mm 534 W/m2
09:59 6.5 °C -3.8 °C 1013.4 hPa NW 14.8 km/h 14.8 km/h 47.9% 0.0 mm 545 W/m2
10:04 6.6 °C -3.9 °C 1013.5 hPa NW 14.8 km/h 14.8 km/h 47.1% 0.0 mm 554 W/m2
10:09 6.7 °C -3.6 °C 1013.5 hPa NW 14.8 km/h 14.8 km/h 48% 0.0 mm 564 W/m2
10:14 6.8 °C -3.9 °C 1013.4 hPa NW 14.8 km/h 14.8 km/h 46.5% 0.0 mm 575 W/m2
10:19 6.9 °C -3.7 °C 1013.5 hPa NW 14.8 km/h 14.8 km/h 46.8% 0.0 mm 585 W/m2
10:24 7.1 °C -3.6 °C 1013.5 hPa NW 14.8 km/h 14.8 km/h 46.6% 0.0 mm 591 W/m2
10:29 7.3 °C -3.9 °C 1013.5 hPa NW 14.8 km/h 14.8 km/h 45% 0.0 mm 598 W/m2
10:34 7.4 °C -3.9 °C 1013.5 hPa NNW 17.7 km/h 18.5 km/h 44.5% 0.0 mm 608 W/m2
10:39 7.6 °C -3.9 °C 1013.5 hPa NNW 18.5 km/h 19.3 km/h 44.2% 0.0 mm 617 W/m2
10:44 7.7 °C -3.7 °C 1013.6 hPa NNW 18.5 km/h 19.3 km/h 44.5% 0.0 mm 626 W/m2
10:49 7.8 °C -3.9 °C 1013.6 hPa NNW 18.5 km/h 19.3 km/h 43.5% 0.0 mm 636 W/m2
10:54 8 °C -3.4 °C 1013.6 hPa NNW 18.5 km/h 19.3 km/h 44.2% 0.0 mm 642 W/m2
10:59 8.3 °C -3.5 °C 1013.6 hPa NNW 18.5 km/h 19.3 km/h 43.3% 0.0 mm 650 W/m2
11:04 8.5 °C -3.3 °C 1013.6 hPa NNW 17.8 km/h 19.3 km/h 43.2% 0.0 mm 654 W/m2
11:09 8.6 °C -3.3 °C 1013.6 hPa North 16.7 km/h 19.3 km/h 43% 0.0 mm 663 W/m2
11:14 8.6 °C -3.4 °C 1013.6 hPa North 16.7 km/h 16.7 km/h 42.7% 0.0 mm 670 W/m2
11:19 8.7 °C -3.4 °C 1013.6 hPa North 16.7 km/h 16.7 km/h 42.6% 0.0 mm 675 W/m2
11:24 8.9 °C -3.6 °C 1013.6 hPa North 16.7 km/h 16.7 km/h 41.1% 0.0 mm 682 W/m2
11:29 9 °C -3.6 °C 1013.6 hPa North 16.7 km/h 16.7 km/h 41.1% 0.0 mm 689 W/m2
11:34 8.9 °C -3.5 °C 1013.5 hPa NW 15.3 km/h 16.7 km/h 41.8% 0.0 mm 693 W/m2
11:39 9 °C -3.4 °C 1013.5 hPa NW 13 km/h 16.1 km/h 41.5% 0.0 mm 698 W/m2
11:44 9.1 °C -3.1 °C 1013.5 hPa NW 13 km/h 13 km/h 42% 0.0 mm 703 W/m2
11:49 9.2 °C -3.7 °C 1013.4 hPa NW 13 km/h 13 km/h 40.2% 0.0 mm 710 W/m2
11:54 8.9 °C -3.5 °C 1013.3 hPa NW 13 km/h 13 km/h 41.5% 0.0 mm 712 W/m2
11:59 9.2 °C -3.3 °C 1013.3 hPa NW 13 km/h 13 km/h 41.2% 0.0 mm 719 W/m2
12:04 9.6 °C -3.1 °C 1013.3 hPa WNW 17.4 km/h 18.5 km/h 41% 0.0 mm 722 W/m2
12:09 9.9 °C -3 °C 1013.4 hPa WNW 18.5 km/h 19.3 km/h 40.4% 0.0 mm 729 W/m2
12:14 9.6 °C -3.5 °C 1013.4 hPa WNW 18.5 km/h 19.3 km/h 39.6% 0.0 mm 729 W/m2
12:19 9.5 °C -3.4 °C 1013.4 hPa WNW 18.5 km/h 19.3 km/h 40% 0.0 mm 733 W/m2
12:24 9.8 °C -4.1 °C 1013.4 hPa WNW 18.5 km/h 19.3 km/h 37.3% 0.0 mm 737 W/m2
12:29 10 °C -3.7 °C 1013.4 hPa WNW 18.5 km/h 19.3 km/h 37.9% 0.0 mm 738 W/m2
12:34 10.1 °C -3.1 °C 1013.4 hPa NNW 16.4 km/h 19.3 km/h 39.5% 0.0 mm 744 W/m2
12:39 10.4 °C -2.5 °C 1013.3 hPa NNW 13 km/h 19.3 km/h 40.4% 0.0 mm 747 W/m2
12:44 10.8 °C -2.2 °C 1013.3 hPa NNW 13 km/h 13 km/h 40.1% 0.0 mm 749 W/m2
12:49 11 °C -2.6 °C 1013.3 hPa NNW 13 km/h 13 km/h 38.5% 0.0 mm 752 W/m2
12:54 11.2 °C -2.6 °C 1013.3 hPa NNW 13 km/h 13 km/h 38.1% 0.0 mm 754 W/m2
12:59 11 °C -3 °C 1013.4 hPa NNW 13 km/h 13 km/h 37.3% 0.0 mm 752 W/m2
13:04 11 °C -2.3 °C 1013.3 hPa NNW 13 km/h 13 km/h 39.3% 0.0 mm 754 W/m2
13:09 11.3 °C -2.7 °C 1013.3 hPa NNW 13 km/h 13 km/h 37.5% 0.0 mm 758 W/m2
13:14 11 °C -3.2 °C 1013.2 hPa NNW 13 km/h 13 km/h 36.8% 0.0 mm 759 W/m2
13:19 11 °C -3.2 °C 1013.3 hPa NNW 13 km/h 13 km/h 37% 0.0 mm 756 W/m2
13:24 11 °C -4.2 °C 1013.3 hPa NNW 13 km/h 13 km/h 34.4% 0.0 mm 754 W/m2
13:29 11 °C -4.8 °C 1013.3 hPa NNW 13 km/h 13 km/h 32.8% 0.0 mm 754 W/m2
13:34 11 °C -4.9 °C 1013.2 hPa NNW 12.3 km/h 13 km/h 32.3% 0.0 mm 754 W/m2
13:39 11.2 °C -4.1 °C 1013.2 hPa NNW 11.1 km/h 12.9 km/h 34.1% 0.0 mm 754 W/m2
13:44 11.3 °C -4.3 °C 1013.2 hPa NNW 11.1 km/h 11.3 km/h 33.3% 0.0 mm 751 W/m2
13:49 11.3 °C -3.1 °C 1013.2 hPa NNW 11.1 km/h 11.3 km/h 36.5% 0.0 mm 756 W/m2
13:54 11.8 °C -2.7 °C 1013.3 hPa NNW 11.1 km/h 11.3 km/h 36.3% 0.0 mm 751 W/m2
13:59 11.9 °C -2.9 °C 1013.2 hPa NNW 11.1 km/h 11.3 km/h 35.6% 0.0 mm 765 W/m2
14:04 12.1 °C -2.6 °C 1013.1 hPa NW 13.9 km/h 14.8 km/h 35.7% 0.0 mm 751 W/m2
14:09 12.2 °C -3.2 °C 1013.1 hPa NW 14.8 km/h 14.8 km/h 34% 0.0 mm 742 W/m2
14:14 11.6 °C -2.2 °C 1013.1 hPa NW 14.8 km/h 14.8 km/h 38.3% 0.0 mm 738 W/m2
14:19 11.2 °C -3.8 °C 1013.2 hPa NW 14.8 km/h 14.8 km/h 34.7% 0.0 mm 737 W/m2
14:24 10.7 °C -2.5 °C 1013.2 hPa NW 14.8 km/h 14.8 km/h 39.7% 0.0 mm 735 W/m2
14:29 10.2 °C -1.7 °C 1013.2 hPa NW 14.8 km/h 14.8 km/h 43.4% 0.0 mm 733 W/m2
14:34 9.9 °C -1.4 °C 1013.3 hPa WNW 16.3 km/h 16.7 km/h 45.2% 0.0 mm 726 W/m2
14:39 9.6 °C -1.2 °C 1013.4 hPa WNW 16.7 km/h 16.7 km/h 47% 0.0 mm 729 W/m2
14:44 9.3 °C -1.3 °C 1013.4 hPa WNW 16.7 km/h 16.7 km/h 47.3% 0.0 mm 729 W/m2
14:49 9.4 °C -1.2 °C 1013.5 hPa WNW 16.7 km/h 16.7 km/h 47.7% 0.0 mm 747 W/m2
14:54 9.6 °C -1.3 °C 1013.5 hPa WNW 16.7 km/h 16.7 km/h 46.7% 0.0 mm 721 W/m2
14:59 9.5 °C -1.8 °C 1013.5 hPa WNW 16.7 km/h 16.7 km/h 45.3% 0.0 mm 717 W/m2
15:04 9.4 °C -1.9 °C 1013.4 hPa SW 19.6 km/h 20.4 km/h 45.1% 0.0 mm 701 W/m2
15:09 9.5 °C -1.7 °C 1013.4 hPa SSW 20.4 km/h 20.9 km/h 45.5% 0.0 mm 728 W/m2
15:14 9.5 °C -1.4 °C 1013.4 hPa SSW 20.4 km/h 20.9 km/h 46.7% 0.0 mm 719 W/m2
15:19 9.4 °C -0.6 °C 1013.4 hPa SSW 20.4 km/h 20.9 km/h 49.7% 0.0 mm 684 W/m2
15:24 9.2 °C -0.4 °C 1013.4 hPa SSW 20.4 km/h 20.9 km/h 50.8% 0.0 mm 670 W/m2
15:29 9.2 °C -0.2 °C 1013.3 hPa SSW 20.4 km/h 20.9 km/h 51.8% 0.0 mm 657 W/m2
15:34 9.2 °C -0.3 °C 1013.3 hPa SSW 24.8 km/h 25.9 km/h 51.4% 0.0 mm 659 W/m2
15:39 9.3 °C 0.1 °C 1013.3 hPa SSW 25.9 km/h 25.9 km/h 52.5% 0.0 mm 654 W/m2
15:44 9.4 °C 0.2 °C 1013.3 hPa SSW 25.9 km/h 25.9 km/h 52.8% 0.0 mm 680 W/m2
15:49 9.4 °C 0 °C 1013.8 hPa SSW 25.9 km/h 25.9 km/h 52.2% 0.0 mm 680 W/m2
15:54 9.2 °C -0.1 °C 1013.4 hPa SSW 25.9 km/h 25.9 km/h 52.3% 0.0 mm 661 W/m2
15:59 8.9 °C 0.2 °C 1013.2 hPa SSW 25.9 km/h 25.9 km/h 54.3% 0.0 mm 624 W/m2
16:04 8.9 °C 0.4 °C 1013.2 hPa SSW 28.8 km/h 29.6 km/h 55.1% 0.0 mm 624 W/m2
16:09 9.2 °C 1 °C 1013.2 hPa SSW 29.6 km/h 29.6 km/h 56.7% 0.0 mm 605 W/m2
16:14 9.3 °C 1.5 °C 1013.3 hPa SSW 29.6 km/h 29.6 km/h 58% 0.0 mm 596 W/m2
16:19 9.3 °C 1.8 °C 1013.3 hPa SSW 29.6 km/h 29.6 km/h 59.4% 0.0 mm 599 W/m2
16:24 9.5 °C 2 °C 1013.2 hPa SSW 29.6 km/h 29.6 km/h 59.7% 0.0 mm 605 W/m2
16:29 9.6 °C 2.1 °C 1013.2 hPa SSW 29.6 km/h 29.6 km/h 59.7% 0.0 mm 605 W/m2
16:34 9.7 °C 2.3 °C 1013.2 hPa SSW 29.6 km/h 29.6 km/h 59.9% 0.0 mm 566 W/m2
16:39 9.8 °C 2 °C 1013.4 hPa SSW 29.6 km/h 29.6 km/h 58.5% 0.0 mm 541 W/m2
16:44 9.6 °C 2.2 °C 1013.3 hPa SSW 29.6 km/h 29.6 km/h 59.8% 0.0 mm 592 W/m2
16:49 9.5 °C 2.2 °C 1013.3 hPa SSW 29.6 km/h 29.6 km/h 60.6% 0.0 mm 585 W/m2
16:54 9.5 °C 2.4 °C 1013.3 hPa SSW 29.6 km/h 29.6 km/h 61.5% 0.0 mm 548 W/m2
16:59 9.5 °C 2.2 °C 1013.3 hPa SSW 29.6 km/h 29.6 km/h 60.3% 0.0 mm 515 W/m2
17:04 9.5 °C 2 °C 1013.2 hPa SSW 28.9 km/h 29.6 km/h 59.5% 0.0 mm 512 W/m2
17:09 9.4 °C 2.3 °C 1013.1 hPa SSW 27.8 km/h 29 km/h 61.3% 0.0 mm 512 W/m2
17:14 9.4 °C 2.5 °C 1013.2 hPa SSW 27.8 km/h 27.8 km/h 62.4% 0.0 mm 468 W/m2
17:19 9.4 °C 2.6 °C 1013.2 hPa SSW 27.8 km/h 27.8 km/h 62.9% 0.0 mm 512 W/m2
17:24 9.4 °C 2.8 °C 1013.2 hPa SSW 27.8 km/h 27.8 km/h 63.3% 0.0 mm 512 W/m2
17:29 9.5 °C 2.6 °C 1013.2 hPa SSW 27.8 km/h 27.8 km/h 62.1% 0.0 mm 373 W/m2
Refsnesbakken, Moss, Norway
Compliments of Weather Underground - 2 mb